﻿測定場所 (Monitoring sites),日付 (Measurement date),時間 (Measurement time),線量率 最大値 (max) μGy/h,線量率 最小値 (min) μGy/h,線量率 平均値 (average) μGy/h,
小平 (Kodaira),2019-09-15,23:01～24:00,0.0319,0.0283,0.0300,
小平 (Kodaira),2019-09-15,22:01～23:00,0.0316,0.0276,0.0297,
小平 (Kodaira),2019-09-15,21:01～22:00,0.0320,0.0277,0.0297,
小平 (Kodaira),2019-09-15,20:01～21:00,0.0320,0.0267,0.0296,
小平 (Kodaira),2019-09-15,19:01～20:00,0.0312,0.0281,0.0297,
小平 (Kodaira),2019-09-15,18:01～19:00,0.0323,0.0279,0.0298,
小平 (Kodaira),2019-09-15,17:01～18:00,0.0312,0.0277,0.0295,
小平 (Kodaira),2019-09-15,16:01～17:00,0.0312,0.0280,0.0296,
小平 (Kodaira),2019-09-15,15:01～16:00,0.0315,0.0276,0.0295,
小平 (Kodaira),2019-09-15,14:01～15:00,0.0322,0.0281,0.0296,
小平 (Kodaira),2019-09-15,13:01～14:00,0.0321,0.0284,0.0300,
小平 (Kodaira),2019-09-15,12:01～13:00,0.0315,0.0272,0.0296,
小平 (Kodaira),2019-09-15,11:01～12:00,0.0316,0.0281,0.0299,
小平 (Kodaira),2019-09-15,10:01～11:00,0.0323,0.0275,0.0300,
小平 (Kodaira),2019-09-15,09:01～10:00,0.0320,0.0272,0.0299,
小平 (Kodaira),2019-09-15,08:01～09:00,0.0323,0.0275,0.0305,
小平 (Kodaira),2019-09-15,07:01～08:00,0.0323,0.0291,0.0304,
小平 (Kodaira),2019-09-15,06:01～07:00,0.0323,0.0278,0.0304,
小平 (Kodaira),2019-09-15,05:01～06:00,0.0323,0.0276,0.0299,
小平 (Kodaira),2019-09-15,04:01～05:00,0.0325,0.0284,0.0302,
小平 (Kodaira),2019-09-15,03:01～04:00,0.0318,0.0272,0.0301,
小平 (Kodaira),2019-09-15,02:01～03:00,0.0317,0.0281,0.0302,
小平 (Kodaira),2019-09-15,01:01～02:00,0.0319,0.0283,0.0300,
小平 (Kodaira),2019-09-15,00:01～01:00,0.0321,0.0280,0.0301,
小平 (Kodaira),2019-09-14,23:01～24:00,0.0320,0.0276,0.0299,
小平 (Kodaira),2019-09-14,22:01～23:00,0.0316,0.0277,0.0300,
小平 (Kodaira),2019-09-14,21:01～22:00,0.0316,0.0282,0.0300,
小平 (Kodaira),2019-09-14,20:01～21:00,0.0313,0.0273,0.0298,
小平 (Kodaira),2019-09-14,19:01～20:00,0.0316,0.0283,0.0298,
小平 (Kodaira),2019-09-14,18:01～19:00,0.0328,0.0280,0.0300,
小平 (Kodaira),2019-09-14,17:01～18:00,0.0319,0.0281,0.0298,
小平 (Kodaira),2019-09-14,16:01～17:00,0.0313,0.0283,0.0298,
小平 (Kodaira),2019-09-14,15:01～16:00,0.0317,0.0281,0.0298,
小平 (Kodaira),2019-09-14,14:01～15:00,0.0321,0.0276,0.0298,
小平 (Kodaira),2019-09-14,13:01～14:00,0.0323,0.0280,0.0301,
小平 (Kodaira),2019-09-14,12:01～13:00,0.0327,0.0287,0.0307,
小平 (Kodaira),2019-09-14,11:01～12:00,0.0323,0.0282,0.0304,
小平 (Kodaira),2019-09-14,10:01～11:00,0.0319,0.0275,0.0301,
小平 (Kodaira),2019-09-14,09:01～10:00,0.0329,0.0283,0.0302,
小平 (Kodaira),2019-09-14,08:01～09:00,0.0325,0.0278,0.0303,
小平 (Kodaira),2019-09-14,07:01～08:00,0.0321,0.0285,0.0301,
小平 (Kodaira),2019-09-14,06:01～07:00,0.0320,0.0272,0.0302,
小平 (Kodaira),2019-09-14,05:01～06:00,0.0324,0.0276,0.0299,
小平 (Kodaira),2019-09-14,04:01～05:00,0.0322,0.0278,0.0299,
小平 (Kodaira),2019-09-14,03:01～04:00,0.0321,0.0282,0.0300,
小平 (Kodaira),2019-09-14,02:01～03:00,0.0326,0.0282,0.0302,
小平 (Kodaira),2019-09-14,01:01～02:00,0.0321,0.0281,0.0299,
小平 (Kodaira),2019-09-14,00:01～01:00,0.0322,0.0281,0.0302,
小平 (Kodaira),2019-09-13,23:01～24:00,0.0319,0.0278,0.0299,
小平 (Kodaira),2019-09-13,22:01～23:00,0.0319,0.0282,0.0301,
小平 (Kodaira),2019-09-13,21:01～22:00,0.0316,0.0281,0.0297,
小平 (Kodaira),2019-09-13,20:01～21:00,0.0317,0.0281,0.0299,
小平 (Kodaira),2019-09-13,19:01～20:00,0.0321,0.0274,0.0298,
小平 (Kodaira),2019-09-13,18:01～19:00,0.0318,0.0283,0.0298,
小平 (Kodaira),2019-09-13,17:01～18:00,0.0324,0.0277,0.0297,
小平 (Kodaira),2019-09-13,16:01～17:00,0.0323,0.0280,0.0300,
小平 (Kodaira),2019-09-13,15:01～16:00,0.0318,0.0278,0.0298,
小平 (Kodaira),2019-09-13,14:01～15:00,0.0320,0.0283,0.0300,
小平 (Kodaira),2019-09-13,13:01～14:00,0.0320,0.0279,0.0299,
小平 (Kodaira),2019-09-13,12:01～13:00,0.0321,0.0277,0.0298,
小平 (Kodaira),2019-09-13,11:01～12:00,0.0324,0.0279,0.0299,
小平 (Kodaira),2019-09-13,10:01～11:00,0.0317,0.0275,0.0299,
小平 (Kodaira),2019-09-13,09:01～10:00,0.0324,0.0274,0.0300,
小平 (Kodaira),2019-09-13,08:01～09:00,0.0331,0.0278,0.0300,
小平 (Kodaira),2019-09-13,07:01～08:00,0.0322,0.0278,0.0301,
小平 (Kodaira),2019-09-13,06:01～07:00,0.0316,0.0278,0.0301,
小平 (Kodaira),2019-09-13,05:01～06:00,0.0316,0.0285,0.0300,
小平 (Kodaira),2019-09-13,04:01～05:00,0.0323,0.0282,0.0302,
小平 (Kodaira),2019-09-13,03:01～04:00,0.0314,0.0281,0.0297,
小平 (Kodaira),2019-09-13,02:01～03:00,0.0317,0.0284,0.0301,
小平 (Kodaira),2019-09-13,01:01～02:00,0.0316,0.0274,0.0300,
小平 (Kodaira),2019-09-13,00:01～01:00,0.0317,0.0274,0.0298,
小平 (Kodaira),2019-09-12,23:01～24:00,0.0322,0.0280,0.0301,
小平 (Kodaira),2019-09-12,22:01～23:00,0.0323,0.0274,0.0298,
小平 (Kodaira),2019-09-12,21:01～22:00,0.0323,0.0276,0.0295,
小平 (Kodaira),2019-09-12,20:01～21:00,0.0310,0.0281,0.0296,
小平 (Kodaira),2019-09-12,19:01～20:00,0.0318,0.0283,0.0299,
小平 (Kodaira),2019-09-12,18:01～19:00,0.0322,0.0269,0.0298,
小平 (Kodaira),2019-09-12,17:01～18:00,0.0324,0.0276,0.0297,
小平 (Kodaira),2019-09-12,16:01～17:00,0.0315,0.0281,0.0298,
小平 (Kodaira),2019-09-12,15:01～16:00,0.0319,0.0276,0.0295,
小平 (Kodaira),2019-09-12,14:01～15:00,0.0325,0.0280,0.0298,
小平 (Kodaira),2019-09-12,13:01～14:00,0.0327,0.0275,0.0297,
小平 (Kodaira),2019-09-12,12:01～13:00,0.0319,0.0279,0.0298,
小平 (Kodaira),2019-09-12,11:01～12:00,0.0313,0.0273,0.0296,
小平 (Kodaira),2019-09-12,10:01～11:00,0.0316,0.0281,0.0297,
小平 (Kodaira),2019-09-12,09:01～10:00,0.0322,0.0279,0.0299,
小平 (Kodaira),2019-09-12,08:01～09:00,0.0315,0.0279,0.0300,
小平 (Kodaira),2019-09-12,07:01～08:00,0.0320,0.0278,0.0300,
小平 (Kodaira),2019-09-12,06:01～07:00,0.0318,0.0279,0.0301,
小平 (Kodaira),2019-09-12,05:01～06:00,0.0325,0.0284,0.0303,
小平 (Kodaira),2019-09-12,04:01～05:00,0.0325,0.0286,0.0303,
小平 (Kodaira),2019-09-12,03:01～04:00,0.0326,0.0283,0.0304,
小平 (Kodaira),2019-09-12,02:01～03:00,0.0321,0.0280,0.0300,
小平 (Kodaira),2019-09-12,01:01～02:00,0.0323,0.0275,0.0298,
小平 (Kodaira),2019-09-12,00:01～01:00,0.0319,0.0271,0.0299,
小平 (Kodaira),2019-09-11,23:01～24:00,0.0322,0.0280,0.0298,
小平 (Kodaira),2019-09-11,22:01～23:00,0.0320,0.0276,0.0299,
小平 (Kodaira),2019-09-11,21:01～22:00,0.0329,0.0278,0.0301,
小平 (Kodaira),2019-09-11,20:01～21:00,0.0337,0.0291,0.0305,
小平 (Kodaira),2019-09-11,19:01～20:00,0.0341,0.0293,0.0315,
小平 (Kodaira),2019-09-11,18:01～19:00,0.0441,0.0326,0.0368,
小平 (Kodaira),2019-09-11,17:01～18:00,0.0509,0.0397,0.0460,
小平 (Kodaira),2019-09-11,16:01～17:00,0.0418,0.0275,0.0308,
小平 (Kodaira),2019-09-11,15:01～16:00,0.0316,0.0275,0.0293,
小平 (Kodaira),2019-09-11,14:01～15:00,0.0319,0.0283,0.0301,
小平 (Kodaira),2019-09-11,13:01～14:00,0.0318,0.0284,0.0300,
小平 (Kodaira),2019-09-11,12:01～13:00,0.0319,0.0278,0.0296,
小平 (Kodaira),2019-09-11,11:01～12:00,0.0313,0.0270,0.0297,
小平 (Kodaira),2019-09-11,10:01～11:00,0.0317,0.0279,0.0299,
小平 (Kodaira),2019-09-11,09:01～10:00,0.0319,0.0278,0.0296,
小平 (Kodaira),2019-09-11,08:01～09:00,0.0315,0.0276,0.0297,
小平 (Kodaira),2019-09-11,07:01～08:00,0.0314,0.0282,0.0297,
小平 (Kodaira),2019-09-11,06:01～07:00,0.0321,0.0278,0.0298,
小平 (Kodaira),2019-09-11,05:01～06:00,0.0319,0.0277,0.0296,
小平 (Kodaira),2019-09-11,04:01～05:00,0.0320,0.0280,0.0296,
小平 (Kodaira),2019-09-11,03:01～04:00,0.0317,0.0279,0.0298,
小平 (Kodaira),2019-09-11,02:01～03:00,0.0320,0.0285,0.0299,
小平 (Kodaira),2019-09-11,01:01～02:00,0.0315,0.0278,0.0297,
小平 (Kodaira),2019-09-11,00:01～01:00,0.0317,0.0278,0.0300,
小平 (Kodaira),2019-09-10,23:01～24:00,0.0326,0.0280,0.0297,
小平 (Kodaira),2019-09-10,22:01～23:00,0.0313,0.0271,0.0295,
小平 (Kodaira),2019-09-10,21:01～22:00,0.0325,0.0279,0.0298,
小平 (Kodaira),2019-09-10,20:01～21:00,0.0326,0.0283,0.0303,
小平 (Kodaira),2019-09-10,19:01～20:00,0.0322,0.0280,0.0299,
小平 (Kodaira),2019-09-10,18:01～19:00,0.0313,0.0282,0.0297,
小平 (Kodaira),2019-09-10,17:01～18:00,0.0313,0.0276,0.0297,
小平 (Kodaira),2019-09-10,16:01～17:00,0.0330,0.0280,0.0300,
小平 (Kodaira),2019-09-10,15:01～16:00,0.0330,0.0280,0.0303,
小平 (Kodaira),2019-09-10,14:01～15:00,0.0324,0.0282,0.0300,
小平 (Kodaira),2019-09-10,13:01～14:00,0.0318,0.0268,0.0297,
小平 (Kodaira),2019-09-10,12:01～13:00,0.0325,0.0286,0.0299,
小平 (Kodaira),2019-09-10,11:01～12:00,0.0323,0.0283,0.0300,
小平 (Kodaira),2019-09-10,10:01～11:00,0.0326,0.0277,0.0302,
小平 (Kodaira),2019-09-10,09:01～10:00,0.0325,0.0282,0.0301,
小平 (Kodaira),2019-09-10,08:01～09:00,0.0324,0.0286,0.0305,
小平 (Kodaira),2019-09-10,07:01～08:00,0.0344,0.0288,0.0313,
小平 (Kodaira),2019-09-10,06:01～07:00,0.0339,0.0296,0.0316,
小平 (Kodaira),2019-09-10,05:01～06:00,0.0331,0.0290,0.0312,
小平 (Kodaira),2019-09-10,04:01～05:00,0.0335,0.0289,0.0310,
小平 (Kodaira),2019-09-10,03:01～04:00,0.0342,0.0285,0.0309,
小平 (Kodaira),2019-09-10,02:01～03:00,0.0327,0.0285,0.0307,
小平 (Kodaira),2019-09-10,01:01～02:00,0.0320,0.0276,0.0303,
小平 (Kodaira),2019-09-10,00:01～01:00,0.0312,0.0276,0.0296,
小平 (Kodaira),2019-09-09,23:01～24:00,0.0325,0.0275,0.0299,
小平 (Kodaira),2019-09-09,22:01～23:00,0.0321,0.0280,0.0297,
小平 (Kodaira),2019-09-09,21:01～22:00,0.0321,0.0280,0.0297,
小平 (Kodaira),2019-09-09,20:01～21:00,0.0323,0.0282,0.0298,
小平 (Kodaira),2019-09-09,19:01～20:00,0.0323,0.0267,0.0296,
小平 (Kodaira),2019-09-09,18:01～19:00,0.0312,0.0272,0.0296,
小平 (Kodaira),2019-09-09,17:01～18:00,0.0312,0.0276,0.0294,
小平 (Kodaira),2019-09-09,16:01～17:00,0.0308,0.0273,0.0294,
小平 (Kodaira),2019-09-09,15:01～16:00,0.0319,0.0271,0.0293,
小平 (Kodaira),2019-09-09,14:01～15:00,0.0317,0.0274,0.0293,
小平 (Kodaira),2019-09-09,13:01～14:00,0.0311,0.0271,0.0292,
小平 (Kodaira),2019-09-09,12:01～13:00,0.0323,0.0279,0.0296,
小平 (Kodaira),2019-09-09,11:01～12:00,0.0314,0.0280,0.0296,
小平 (Kodaira),2019-09-09,10:01～11:00,0.0314,0.0263,0.0295,
小平 (Kodaira),2019-09-09,09:01～10:00,0.0316,0.0281,0.0294,
小平 (Kodaira),2019-09-09,08:01～09:00,0.0327,0.0276,0.0301,
小平 (Kodaira),2019-09-09,07:01～08:00,0.0352,0.0292,0.0317,
小平 (Kodaira),2019-09-09,06:01～07:00,0.0385,0.0330,0.0360,
小平 (Kodaira),2019-09-09,05:01～06:00,0.0415,0.0348,0.0373,
小平 (Kodaira),2019-09-09,04:01～05:00,0.0419,0.0353,0.0383,
小平 (Kodaira),2019-09-09,03:01～04:00,0.0386,0.0327,0.0357,
小平 (Kodaira),2019-09-09,02:01～03:00,0.0356,0.0297,0.0321,
小平 (Kodaira),2019-09-09,01:01～02:00,0.0316,0.0280,0.0295,
小平 (Kodaira),2019-09-09,00:01～01:00,0.0319,0.0275,0.0299,
